Latest Weather Observations for Spitfire Channel

IDQ60901

Issued at 3:01 pm EST Saturday 20 December 2014 (issued every 10 minutes, with the page automatically refreshed every 10 minutes)

About weather observations | Map of Brisbane area stations | Latest observations for Brisbane area | Other Formats
Station Details ID: 040927 Name: SPITFIRE CHANNEL BEACON Lat: -27.05 Lon: 153.27 Height: 7.0 m
Data from the previous 72 hours. | See also: Recent months for locations in Queensland
Date/Time
EST
Tmp

°C
App
Tmp
°C
Dew
Point
°C
Rel
Hum
%
Delta-T

°C
Wind Press
QNH
hPa
Press
MSL
hPa
Rain
since
9 am
mm
Dir
 
Spd
km/h
Gust
km/h
Spd
kts
Gust
kts
20/03:00pm - - - - - E 24 30 13 16 - - -
20/02:30pm - - - - - E 24 28 13 15 - - -
20/02:00pm - - - - - ESE 24 28 13 15 - - -
20/01:30pm - - - - - ESE 22 26 12 14 - - -
20/01:00pm - - - - - ESE 26 30 14 16 - - -
20/12:30pm - - - - - ESE 22 28 12 15 - - -
20/12:00pm - - - - - ESE 22 28 12 15 - - -
20/11:30am - - - - - ESE 24 30 13 16 - - -
20/11:00am - - - - - ESE 22 24 12 13 - - -
20/10:30am - - - - - ESE 24 28 13 15 - - -
20/10:00am - - - - - ESE 24 30 13 16 - - -
20/09:30am - - - - - ESE 24 28 13 15 - - -
20/09:00am - - - - - SE 22 26 12 14 - - -
20/08:30am - - - - - SE 22 28 12 15 - - -
20/08:00am - - - - - SE 22 28 12 15 - - -
20/07:30am - - - - - SE 19 24 10 13 - - -
20/07:00am - - - - - SE 19 24 10 13 - - -
20/06:30am - - - - - SE 20 24 11 13 - - -
20/06:00am - - - - - SE 24 32 13 17 - - -
20/05:30am - - - - - SE 24 28 13 15 - - -
20/05:00am - - - - - SE 24 28 13 15 - - -
20/04:30am - - - - - SE 24 30 13 16 - - -
20/04:00am - - - - - SE 24 32 13 17 - - -
20/03:30am - - - - - SE 24 28 13 15 - - -
20/03:00am - - - - - SE 26 32 14 17 - - -
20/02:30am - - - - - SE 24 30 13 16 - - -
20/02:00am - - - - - SE 26 30 14 16 - - -
20/01:30am - - - - - SE 28 33 15 18 - - -
20/01:00am - - - - - SE 26 32 14 17 - - -
20/12:30am - - - - - SE 28 33 15 18 - - -
20/12:00am - - - - - ESE 30 33 16 18 - - -
 
Date/Time
EST
Tmp

°C
App
Tmp
°C
Dew
Point
°C
Rel
Hum
%
Delta-T

°C
Wind Press
QNH
hPa
Press
MSL
hPa
Rain
since
9 am
mm
Dir
 
Spd
km/h
Gust
km/h
Spd
kts
Gust
kts
19/11:30pm - - - - - ESE 22 28 12 15 - - -
19/11:00pm - - - - - ESE 15 17 8 9 - - -
19/10:30pm - - - - - ESE 11 15 6 8 - - -
19/10:00pm - - - - - ESE 9 11 5 6 - - -
19/09:30pm - - - - - E 7 9 4 5 - - -
19/09:00pm - - - - - NE 9 13 5 7 - - -
19/08:30pm - - - - - N 17 22 9 12 - - -
19/08:00pm - - - - - N 20 24 11 13 - - -
19/07:30pm - - - - - NNE 20 26 11 14 - - -
19/07:00pm - - - - - N 20 24 11 13 - - -
19/06:30pm - - - - - N 22 26 12 14 - - -
19/06:00pm - - - - - N 24 28 13 15 - - -
19/05:30pm - - - - - N 24 30 13 16 - - -
19/05:00pm - - - - - N 26 30 14 16 - - -
19/04:30pm - - - - - N 24 28 13 15 - - -
19/04:00pm - - - - - N 24 26 13 14 - - -
19/03:30pm - - - - - N 22 24 12 13 - - -
19/03:00pm - - - - - N 20 24 11 13 - - -
19/02:30pm - - - - - N 19 20 10 11 - - -
19/02:00pm - - - - - N 19 22 10 12 - - -
19/01:30pm - - - - - N 19 22 10 12 - - -
19/01:00pm - - - - - N 19 20 10 11 - - -
19/12:30pm - - - - - N 15 19 8 10 - - -
19/12:00pm - - - - - N 17 20 9 11 - - -
19/11:30am - - - - - N 19 20 10 11 - - -
19/11:00am - - - - - NNW 17 19 9 10 - - -
19/10:30am - - - - - NNW 17 19 9 10 - - -
19/10:00am - - - - - NW 11 15 6 8 - - -
19/09:30am - - - - - WNW 11 15 6 8 - - -
19/09:00am - - - - - WNW 11 13 6 7 - - -
19/08:30am - - - - - W 13 17 7 9 - - -
19/08:00am - - - - - WNW 15 17 8 9 - - -
19/07:30am - - - - - W 17 20 9 11 - - -
19/07:00am - - - - - W 17 20 9 11 - - -
19/06:30am - - - - - WNW 17 20 9 11 - - -
19/06:00am - - - - - WNW 11 13 6 7 - - -
19/05:30am - - - - - W 11 13 6 7 - - -
19/05:00am - - - - - WNW 9 13 5 7 - - -
19/04:30am - - - - - W 7 11 4 6 - - -
19/04:00am - - - - - WSW 6 9 3 5 - - -
19/03:30am - - - - - SW 15 20 8 11 - - -
19/03:00am - - - - - SSW 17 20 9 11 - - -
19/02:30am - - - - - SW 22 24 12 13 - - -
19/02:00am - - - - - WSW 20 24 11 13 - - -
19/01:30am - - - - - WSW 24 28 13 15 - - -
19/01:00am - - - - - WNW 24 32 13 17 - - -
19/12:30am - - - - - NW 26 30 14 16 - - -
19/12:00am - - - - - NW 26 30 14 16 - - -
 
Date/Time
EST
Tmp

°C
App
Tmp
°C
Dew
Point
°C
Rel
Hum
%
Delta-T

°C
Wind Press
QNH
hPa
Press
MSL
hPa
Rain
since
9 am
mm
Dir
 
Spd
km/h
Gust
km/h
Spd
kts
Gust
kts
18/11:30pm - - - - - NW 20 24 11 13 - - -
18/11:00pm - - - - - NW 22 26 12 14 - - -
18/10:30pm - - - - - N 13 17 7 9 - - -
18/10:00pm - - - - - NE 19 22 10 12 - - -
18/09:30pm - - - - - NE 11 11 6 6 - - -
18/09:00pm - - - - - CALM 0 6 0 3 - - -
18/08:30pm - - - - - SSW 11 13 6 7 - - -
18/08:00pm - - - - - SE 13 15 7 8 - - -
18/07:30pm - - - - - SSE 20 26 11 14 - - -
18/07:00pm - - - - - SW 17 26 9 14 - - -
18/06:30pm - - - - - WNW 28 33 15 18 - - -
18/06:24pm - - - - - NNW 30 37 16 20 - - -
18/06:00pm - - - - - NNW 41 50 22 27 - - -
18/05:30pm - - - - - NNW 44 52 24 28 - - -
18/05:00pm - - - - - N 41 50 22 27 - - -
18/04:30pm - - - - - N 41 52 22 28 - - -
18/04:00pm - - - - - N 37 46 20 25 - - -
18/03:30pm - - - - - N 33 39 18 21 - - -
18/03:00pm - - - - - N 33 39 18 21 - - -
18/02:30pm - - - - - N 32 37 17 20 - - -
18/02:00pm - - - - - N 33 37 18 20 - - -
18/01:30pm - - - - - N 30 35 16 19 - - -
18/01:00pm - - - - - N 28 32 15 17 - - -
18/12:30pm - - - - - N 28 35 15 19 - - -
18/12:00pm - - - - - N 26 32 14 17 - - -
18/11:30am - - - - - N 26 32 14 17 - - -
18/11:00am - - - - - N 22 30 12 16 - - -
18/10:30am - - - - - NNW 19 20 10 11 - - -
18/10:00am - - - - - NNW 20 24 11 13 - - -
18/09:30am - - - - - N 15 19 8 10 - - -
18/09:00am - - - - - NNE 7 9 4 5 - - -
18/08:30am - - - - - WNW 2 6 1 3 - - -
18/08:00am - - - - - WNW 4 6 2 3 - - -
18/07:30am - - - - - NNW 2 4 1 2 - - -
18/07:00am - - - - - N 6 7 3 4 - - -
18/06:30am - - - - - E 4 4 2 2 - - -
18/06:00am - - - - - ESE 7 9 4 5 - - -
18/05:30am - - - - - E 13 15 7 8 - - -
18/05:00am - - - - - ENE 17 19 9 10 - - -
18/04:30am - - - - - NNE 13 15 7 8 - - -
18/04:00am - - - - - NNE 13 17 7 9 - - -
18/03:30am - - - - - NW 13 17 7 9 - - -
18/03:00am - - - - - SE 20 30 11 16 - - -
18/02:56am - - - - - SSE 24 33 13 18 - - -
18/02:30am - - - - - S 39 50 21 27 - - -
18/02:17am - - - - - S 41 50 22 27 - - -
18/02:00am - - - - - SSW 37 44 20 24 - - -
18/01:30am - - - - - SSW 30 33 16 18 - - -
18/01:17am - - - - - SSW 28 39 15 21 - - -
18/01:00am - - - - - SSW 9 19 5 10 - - -
18/12:30am - - - - - SSE 20 26 11 14 - - -
18/12:00am - - - - - WNW 13 15 7 8 - - -
 
Date/Time
EST
Tmp

°C
App
Tmp
°C
Dew
Point
°C
Rel
Hum
%
Delta-T

°C
Wind Press
QNH
hPa
Press
MSL
hPa
Rain
since
9 am
mm
Dir
 
Spd
km/h
Gust
km/h
Spd
kts
Gust
kts
17/11:30pm - - - - - WNW 24 28 13 15 - - -
17/11:00pm - - - - - NW 17 20 9 11 - - -
17/10:30pm - - - - - NNW 20 24 11 13 - - -
17/10:00pm - - - - - NNW 15 17 8 9 - - -
17/09:30pm - - - - - NNW 15 19 8 10 - - -
17/09:00pm - - - - - NW 17 19 9 10 - - -
17/08:30pm - - - - - NNW 22 28 12 15 - - -
17/08:00pm - - - - - N 26 30 14 16 - - -
17/07:30pm - - - - - N 26 30 14 16 - - -
17/07:00pm - - - - - N 24 30 13 16 - - -
17/06:30pm - - - - - NNE 17 19 9 10 - - -
17/06:00pm - - - - - N 19 20 10 11 - - -
17/05:30pm - - - - - N 17 19 9 10 - - -
17/05:00pm - - - - - N 17 19 9 10 - - -
17/04:30pm - - - - - NNE 15 20 8 11 - - -
17/04:00pm - - - - - NNE 15 17 8 9 - - -
17/03:30pm - - - - - NNE 13 15 7 8 - - -

Latest Capital City Observations: Canberra | Sydney | Melbourne | Brisbane | Adelaide | Perth | Hobart | Darwin

Other Formats:

Comma delimited format used in spreadsheet applications
http://www.bom.gov.au/fwo/IDQ60901/IDQ60901.94581.axf

JavaScript Object Notation format (JSON) in row-major order
http://www.bom.gov.au/fwo/IDQ60901/IDQ60901.94581.json